This is the latest recevied weather packets stored in our database for station/object ON7AMI-5. If no packets are shown the sender has not sent any weather packets the latest 1 day(s).
| Time | Temp. | Humidity | Pressure | Rain* | Wind** | Luminosity | Snow |
|---|---|---|---|---|---|---|---|
| 1836274713 | 20° C | 74% | 1014.4 hPa | 0 mm | 1.79 m/s, 34° | - | - |
| 1836274562 | 20° C | 74% | 1014.4 hPa | 0 mm | 0 m/s | - | - |
| 1836274408 | 20° C | 74% | 1014.7 hPa | 0 mm | 1.79 m/s, 34° | - | - |
| 1836274253 | 20° C | 74% | 1014.3 hPa | 0 mm | 2.68 m/s, 34° | - | - |
| 1836274109 | 20° C | 74% | 1015.1 hPa | 0 mm | 1.79 m/s, 35° | - | - |
| 1778031333 | 8.89° C | 92% | 1010.5 hPa | 0 mm | 3.58 m/s, 5° | - | - |
| 1778031033 | 8.89° C | 92% | 1010.5 hPa | 0 mm | 4.02 m/s, 8° | - | - |
| 1778030737 | 8.89° C | 92% | 1010.4 hPa | 0 mm | 2.68 m/s, 351° | - | - |
| 1778030433 | 8.89° C | 92% | 1010.4 hPa | 0 mm | 2.24 m/s, 357° | - | - |
| 1778030133 | 8.89° C | 92% | 1010.4 hPa | 0 mm | 3.13 m/s, 26° | - | - |
| 1778029833 | 8.89° C | 92% | 1010.4 hPa | 0 mm | 4.02 m/s, 8° | - | - |
| 1778029533 | 9.44° C | 92% | 1010.3 hPa | 0 mm | 3.58 m/s, 14° | - | - |
| 1778029233 | 9.44° C | 92% | 1010.4 hPa | 0 mm | 5.81 m/s, 18° | - | - |
| 1778028926 | 9.44° C | 92% | 1010.4 hPa | 0 mm | 2.68 m/s, 5° | - | - |
| 1778028631 | 9.44° C | 92% | 1010.5 hPa | 0 mm | 3.58 m/s, 20° | - | - |
| 1778028333 | 9.44° C | 92% | 1010.5 hPa | 0 mm | 3.13 m/s, 4° | - | - |
| 1778028034 | 9.44° C | 92% | 1010.5 hPa | 0 mm | 4.47 m/s, 23° | - | - |
| 1778027727 | 9.44° C | 92% | 1010.6 hPa | 0 mm | 3.13 m/s, 8° | - | - |
| 1778027433 | 9.44° C | 92% | 1010.6 hPa | 0 mm | 4.02 m/s, 17° | - | - |
| 1778027134 | 9.44° C | 92% | 1010.6 hPa | 0 mm | 3.58 m/s, 4° | - | - |
| 1778026827 | 9.44° C | 92% | 1010.7 hPa | 0 mm | 4.02 m/s, 24° | - | - |
| 1778026533 | 9.44° C | 92% | 1010.7 hPa | 0 mm | 3.13 m/s, 10° | - | - |
| 1778026232 | 10° C | 92% | 1010.7 hPa | 0 mm | 4.02 m/s, 12° | - | - |
| 1778025926 | 10° C | 92% | 1010.7 hPa | 0 mm | 3.58 m/s, 15° | - | - |
| 1778025632 | 10° C | 92% | 1010.7 hPa | 0 mm | 0 m/s | - | - |
* Rain latest hour (hover to see other rain measurements)
** Current wind speed in m/s (hover to see current wind gust speed)